FW8347 Weather Reports


Display with metric or nautical units.
time (UTC)temp
F
wind
direction
speed
MPH
gust
MPH
rain 1hr
in
rain 24hr
in
rain mn
in
humidity
%
barometer
mb
20260508084547 39 208 4.0 6.0 0.00 0.03 0.03 92 1011.4
20260508083044 39 210 4.0 6.0 0.00 0.03 0.03 92 1011.4
20260508081559 40 205 3.0 5.0 0.00 0.03 0.03 91 1011.3
20260508080056 40 207 3.0 5.0 0.00 0.03 0.03 91 1011.3
20260508074548 41 191 4.0 8.0 0.00 0.03 0.03 91 1011.3
20260508073103 41 230 3.0 6.0 0.00 0.03 0.03 91 1011.4
20260508071544 41 360 3.0 6.0 0.00 0.03 0.03 90 1011.4
20260508070048 42 203 4.0 8.0 0.00 0.03 0.03 90 1011.5
20260508064547 42 360 3.0 8.0 0.00 0.03 0.03 90 1011.5
20260508063050 42 360 4.0 6.0 0.01 0.03 0.03 89 1011.5
20260508061549 42 360 5.0 9.0 0.01 0.03 0.03 88 1011.7
20260508060100 42 232 5.0 8.0 0.01 0.03 0.03 88 1011.6
20260508054546 43 257 4.0 12.0 0.01 0.03 0.03 87 1011.6
20260508053046 43 261 7.0 11.0 0.01 0.02 0.02 88 1011.7
20260508051602 43 248 8.0 11.0 0.01 0.02 0.02 88 1011.8
20260508050052 43 232 4.0 8.0 0.02 0.02 0.02 87 1011.7
20260508044550 43 223 5.0 8.0 0.02 0.02 0.02 86 1011.6
20260508043044 43 240 4.0 8.0 0.01 0.01 0.01 84 1011.6
20260508041547 44 240 9.0 16.0 0.01 0.01 0.01 83 1011.6
20260508040053 45 273 9.0 13.0 0.00 0.00 0.00 84 1011.5
20260508034551 44 279 6.0 12.0 0.00 0.00 0.00 83 1011.3
20260508033056 44 327 14.0 20.0 0.00 0.00 0.00 84 1011.2
20260508031554 45 360 16.0 23.0 0.00 0.00 0.00 84 1011.1
20260508030050 45 288 16.0 22.0 0.00 0.00 0.00 85 1011.2
20260508024610 44 300 10.0 15.0 0.00 0.00 0.00 82 1011.1
20260508023041 45 360 12.0 18.0 0.00 0.00 0.00 78 1011.1
20260508021549 45 302 9.0 11.0 0.00 0.00 0.00 78 1011.1
20260508020051 44 234 2.0 4.0 0.00 0.00 0.00 72 1010.9
20260508014550 44 234 1.0 4.0 0.00 0.00 0.00 71 1010.8
20260508013045 44 228 2.0 4.0 0.00 0.00 0.00 72 1010.8
20260508011548 44 223 2.0 4.0 0.00 0.00 0.00 74 1010.7
20260508010053 44 223 2.0 4.0 0.00 0.00 0.00 71 1010.6
20260508004552 45 264 0.0 3.0 0.00 0.00 0.00 68 1010.4
20260508003044 45 360 2.0 4.0 0.00 0.00 0.00 67 1010.4
20260508001548 46 360 1.0 5.0 0.00 0.00 0.00 66 1010.2
20260508000053 46 360 3.0 6.0 0.00 0.00 0.00 67 1010.1
20260507234545 46 360 3.0 6.0 0.00 0.00 0.00 67 1010.1
20260507233046 47 360 3.0 5.0 0.00 0.00 0.00 65 1010.0
20260507231546 47 360 3.0 4.0 0.00 0.00 0.00 65 1010.0
20260507230104 47 360 3.0 7.0 0.00 0.00 0.00 66 1010.1
20260507224553 47 360 2.0 4.0 0.00 0.00 0.00 66 1010.0
20260507223046 47 275 3.0 7.0 0.00 0.00 0.00 63 1010.0
20260507221547 48 275 3.0 7.0 0.00 0.00 0.00 64 1010.1
20260507220053 48 360 2.0 5.0 0.00 0.00 0.00 60 1010.1
20260507214545 48 360 1.0 4.0 0.00 0.00 0.00 60 1010.2
20260507213046 47 360 1.0 4.0 0.00 0.00 0.00 60 1010.2
20260507211546 47 360 0.0 3.0 0.00 0.00 0.00 64 1010.1
20260507204541 47 0 0.0 1.0 0.00 0.00 0.00 65 1010.2
20260507203112 47 0 0.0 3.0 0.00 0.00 0.00 68 1010.3
20260507201542 47 0 0.0 0.0 0.00 0.00 0.00 66 1010.4
20260507200041 46 360 1.0 4.0 0.00 0.00 0.00 67 1010.5
20260507194558 46 360 1.0 3.0 0.00 0.00 0.00 65 1010.5
20260507193046 46 360 1.0 4.0 0.00 0.00 0.00 64 1010.8
20260507191548 47 0 0.0 0.0 0.00 0.00 0.00 63 1010.9
20260507190047 46 0 0.0 4.0 0.00 0.00 0.00 70 1011.2
20260507184549 45 26 3.0 7.0 0.00 0.00 0.00 69 1011.3
20260507183045 45 19 3.0 5.0 0.00 0.00 0.00 70 1011.5
20260507181547 44 19 3.0 5.0 0.00 0.00 0.00 73 1011.6
20260507180045 45 11 3.0 5.0 0.00 0.00 0.00 71 1011.6
20260507174546 45 5 1.0 4.0 0.00 0.00 0.00 72 1011.6
20260507173115 44 11 4.0 8.0 0.00 0.00 0.00 73 1011.7
20260507171544 44 360 6.0 9.0 0.00 0.00 0.00 76 1011.9
20260507170049 45 5 6.0 9.0 0.00 0.00 0.00 74 1012.0
20260507164542 45 5 4.0 8.0 0.00 0.00 0.00 74 1012.1
20260507163046 45 5 5.0 8.0 0.00 0.00 0.00 73 1012.2
20260507161550 45 355 5.0 6.0 0.00 0.00 0.00 73 1012.4
20260507160053 45 345 5.0 8.0 0.00 0.00 0.00 72 1012.5
20260507154546 45 342 5.0 9.0 0.00 0.01 0.00 72 1012.7
20260507153041 45 340 8.0 10.0 0.00 0.01 0.00 71 1012.8
20260507151547 46 309 5.0 8.0 0.00 0.01 0.00 68 1012.7
20260507150047 46 293 3.0 6.0 0.00 0.01 0.00 69 1012.7
20260507144545 45 277 4.0 7.0 0.00 0.02 0.00 67 1012.8
20260507143058 45 277 3.0 7.0 0.00 0.02 0.00 70 1012.9
20260507141554 44 284 5.0 8.0 0.00 0.02 0.00 72 1013.0
20260507140041 43 304 7.0 11.0 0.00 0.02 0.00 75 1013.2
20260507134549 43 322 7.0 11.0 0.00 0.03 0.00 76 1013.2
20260507133118 43 333 10.0 13.0 0.00 0.03 0.00 75 1013.4
20260507131548 43 305 9.0 12.0 0.00 0.03 0.00 73 1013.3
20260507130057 43 313 9.0 13.0 0.00 0.03 0.00 72 1013.1
20260507124542 43 309 9.0 14.0 0.00 0.05 0.00 74 1013.1
20260507123049 43 309 10.0 14.0 0.00 0.05 0.00 76 1013.1
20260507121544 42 323 9.0 12.0 0.00 0.05 0.00 78 1013.2
20260507120045 42 288 3.0 8.0 0.00 0.05 0.00 80 1013.0
20260507114557 41 212 2.0 6.0 0.00 0.07 0.00 83 1013.0
20260507113041 40 212 4.0 6.0 0.00 0.07 0.00 82 1013.0
20260507111545 40 212 3.0 6.0 0.00 0.07 0.00 84 1012.9
20260507110046 39 212 3.0 4.0 0.00 0.07 0.00 85 1012.5
20260507104543 38 212 2.0 4.0 0.00 0.16 0.00 85 1012.5
20260507103045 38 212 3.0 5.0 0.00 0.16 0.00 85 1012.3
20260507101548 38 209 3.0 6.0 0.00 0.16 0.00 84 1012.4
20260507100050 38 211 4.0 6.0 0.00 0.16 0.00 84 1012.3
20260507094555 37 211 4.0 6.0 0.00 0.20 0.00 85 1012.1
20260507093043 37 211 3.0 6.0 0.00 0.20 0.00 86 1012.1
20260507091542 37 210 4.0 5.0 0.00 0.20 0.00 85 1012.4
20260507090042 37 218 2.0 4.0 0.00 0.20 0.00 85 1012.2